User: anonymous   Login
Location: Theydon Bois
(51.6750°N, 0.1050°E)
Time: 09:37:43
(UTC+01:00)
Language:

HJ-1C - Orbit

View from above orbital plane
View from above orbital plane
View from above satellite
View from above satellite

Ground track
Ground track

The orbit data is extracted from the following two-line orbital elements,

1 38997U 12064A   18227.85590358  .00001191  00000-0  31955-4 0  9991
2 38997  97.2224 258.7087 0008728 289.1094 192.8576 15.39926132322353
Epoch (UTC): 15 August 2018 20:32:30
Eccentricity: 0.0008728
inclination: 97.2224°
perigee height: 440 km
apogee height: 452 km
right ascension of ascending node: 258.7087°
argument of perigee: 289.1094°
revolutions per day: 15.39926132
mean anomaly at epoch: 192.8576°
orbit number at epoch: 32235

The dashed part of the orbit path shows where the satellite is in the earth's shadow,  

DLR